CST,Max TemperatureF,Mean TemperatureF,Min TemperatureF,Max Dew PointF,MeanDew PointF,Min DewpointF,Max Humidity, Mean Humidity, Min Humidity, Max Sea Level PressureIn, Mean Sea Level PressureIn, Min Sea Level PressureIn, Max VisibilityMiles, Mean VisibilityMiles, Min VisibilityMiles, Max Wind SpeedMPH, Mean Wind SpeedMPH, Max Gust SpeedMPH,PrecipitationIn, CloudCover, Events, WindDirDegrees
2013-12-1,73,62,51,59,55,50,100,84,57,30.17,30.10,29.96,10,7,1,9,2,,0.00,4,,249
2013-12-2,82,68,55,59,55,52,97,73,36,29.94,29.80,29.68,10,8,4,13,3,,0.00,0,,227
2013-12-3,89,68,46,57,48,39,93,61,17,29.72,29.66,29.59,10,8,2,8,2,,0.00,0,,234
2013-12-4,79,66,53,65,59,48,94,83,60,29.78,29.72,29.65,10,5,0,9,2,,0.00,3,Fog,163
2013-12-5,69,54,39,67,50,28,97,79,56,30.06,29.89,29.75,10,5,0,17,6,29,0.00,7,Fog,29
2013-12-6,46,40,35,34,30,23,93,71,52,30.42,30.21,30.05,10,9,2,16,10,24,0.02,6,Rain,2
2013-12-7,37,34,32,27,23,19,75,61,52,30.46,30.36,30.27,10,10,7,14,9,21,0.00,7,,28
2013-12-8,51,42,33,42,33,27,86,72,59,30.28,30.15,30.03,10,8,3,5,2,,0.00,8,,105
2013-12-9,46,44,39,44,41,32,93,85,73,30.37,30.13,30.05,10,4,1,14,6,23,0.00,8,,45
2013-12-10,53,44,34,31,24,17,76,55,24,30.52,30.42,30.34,10,10,10,13,7,20,0.00,1,,19
2013-12-11,62,48,34,31,27,23,76,48,24,30.52,30.40,30.33,10,10,10,6,1,,0.00,3,,26
2013-12-12,55,48,41,35,32,29,62,53,42,30.60,30.48,30.32,10,10,7,9,6,,0.00,2,,52
2013-12-13,52,50,48,49,43,35,94,79,56,30.30,30.03,29.91,10,5,1,9,2,,0.01,8,Rain,262
2013-12-14,64,54,44,48,41,29,94,71,38,30.33,30.04,29.91,10,6,1,16,7,23,0.00,3,,309
2013-12-15,64,47,30,31,27,25,82,50,23,30.42,30.34,30.28,10,10,10,8,3,,0.00,0,,321
2013-12-16,68,50,32,33,30,27,85,54,21,30.34,30.27,30.20,10,10,7,10,2,,0.00,0,,207
2013-12-17,73,54,36,41,35,31,86,58,25,30.34,30.27,30.22,10,10,8,7,1,,0.00,0,,200
2013-12-18,73,56,39,53,45,35,86,67,40,30.29,30.18,30.04,10,9,6,13,3,18,0.00,1,,158
2013-12-19,80,68,57,63,57,53,90,76,47,30.03,29.91,29.77,10,10,6,16,7,26,0.00,5,,155
2013-12-20,78,70,62,67,64,61,94,79,60,29.82,29.72,29.59,10,8,6,20,6,25,0.00,7,,134
2013-12-21,75,62,48,67,56,33,94,73,22,29.83,29.63,29.51,10,7,0,20,8,33,0.41,5,Fog-Rain-Thunderstorm,241
2013-12-22,68,56,44,43,37,29,82,56,33,30.35,30.08,29.83,10,10,10,14,4,22,0.00,0,,3
2013-12-23,62,50,37,29,25,18,70,47,18,30.54,30.45,30.37,10,10,10,7,3,,0.00,0,,24
2013-12-24,61,47,33,36,27,18,82,54,20,30.54,30.43,30.28,10,10,10,9,2,,0.00,0,,138
2013-12-25,61,50,39,48,44,36,89,75,60,30.36,30.29,30.23,10,9,5,13,3,,0.00,6,Rain,45
2013-12-26,55,52,48,46,40,36,93,69,57,30.42,30.37,30.34,10,8,4,14,8,21,0.01,8,Rain,16
2013-12-27,57,52,46,48,46,44,93,84,67,30.43,30.37,30.32,10,4,2,9,5,,0.19,7,Rain,25
2013-12-28,57,52,44,47,44,39,93,76,55,30.32,30.18,30.05,10,7,2,6,2,,0.00,6,,213
2013-12-29,64,50,37,51,41,32,93,81,58,30.25,30.05,29.99,10,5,1,12,1,,0.00,4,,275
2013-12-30,45,42,39,34,28,24,79,61,46,30.41,30.30,30.22,10,10,10,10,6,,0.00,4,,10
2013-12-31,52,46,39,33,29,25,77,55,35,30.46,30.37,30.27,10,10,10,6,2,,0.00,2,,106